TimeEST,TemperatureF,Dew PointF,Humidity,Sea Level PressureIn,VisibilityMPH,Wind Direction,Wind SpeedMPH,Gust SpeedMPH,PrecipitationIn,Events,Conditions,WindDirDegrees,DateUTC
12:27 AM,21.2,12.2,68,30.01,8.0,West,10.4,18.4,0.00,Snow,Light Snow,270,2013-02-20 05:27:00
12:53 AM,19.9,12.0,71,30.06,3.0,WNW,11.5,24.2,0.00,Snow,Light Snow,290,2013-02-20 05:53:00
1:09 AM,19.4,8.6,63,30.02,9.0,West,13.8,35.7,0.00,Snow,Light Snow,260,2013-02-20 06:09:00
1:53 AM,19.9,9.0,62,30.07,10.0,West,13.8,20.7,0.00,,Overcast,270,2013-02-20 06:53:00
2:27 AM,19.4,8.6,63,30.03,10.0,West,11.5,21.9,N/A,,Overcast,280,2013-02-20 07:27:00
2:53 AM,19.9,9.0,62,30.07,10.0,West,10.4,21.9,N/A,,Overcast,280,2013-02-20 07:53:00
3:44 AM,19.4,8.6,63,30.05,10.0,West,15.0,25.3,N/A,,Overcast,270,2013-02-20 08:44:00
3:53 AM,19.9,8.1,60,30.08,10.0,West,12.7,25.3,N/A,,Overcast,270,2013-02-20 08:53:00
4:53 AM,19.0,7.0,59,30.09,9.0,West,12.7,20.7,0.00,Snow,Light Snow,270,2013-02-20 09:53:00
5:53 AM,19.0,8.1,62,30.11,9.0,West,10.4,20.7,0.00,,Overcast,280,2013-02-20 10:53:00
6:21 AM,19.4,8.6,63,30.08,9.0,West,9.2,16.1,0.00,Snow,Light Snow,260,2013-02-20 11:21:00
6:46 AM,19.4,8.6,63,30.09,10.0,West,8.1,-,0.00,,Overcast,270,2013-02-20 11:46:00
6:53 AM,19.0,9.0,65,30.13,10.0,West,12.7,19.6,0.00,,Overcast,270,2013-02-20 11:53:00
7:53 AM,19.0,9.0,65,30.15,3.0,West,11.5,20.7,0.00,Snow,Light Snow,280,2013-02-20 12:53:00
8:32 AM,19.4,8.6,63,30.13,1.8,West,13.8,21.9,0.00,Snow,Light Snow,280,2013-02-20 13:32:00
8:39 AM,19.4,8.6,63,30.12,2.0,West,8.1,19.6,0.00,Snow,Light Snow,280,2013-02-20 13:39:00
8:46 AM,19.4,8.6,63,30.13,7.0,West,12.7,19.6,0.00,Snow,Light Snow,280,2013-02-20 13:46:00
8:53 AM,19.0,8.1,62,30.17,7.0,West,10.4,24.2,0.00,Snow,Light Snow,280,2013-02-20 13:53:00
9:53 AM,19.0,8.1,62,30.17,10.0,West,10.4,21.9,0.00,,Overcast,260,2013-02-20 14:53:00
10:53 AM,19.9,8.1,60,30.18,9.0,West,12.7,-,N/A,,Overcast,260,2013-02-20 15:53:00
11:53 AM,21.9,9.0,58,30.19,7.0,West,8.1,17.3,0.00,Snow,Light Snow,280,2013-02-20 16:53:00
12:53 PM,21.9,10.0,60,30.19,8.0,WSW,15.0,20.7,0.00,Snow,Light Snow,250,2013-02-20 17:53:00
1:53 PM,21.9,8.1,55,30.19,10.0,WSW,8.1,17.3,0.00,,Overcast,250,2013-02-20 18:53:00
2:53 PM,21.9,9.0,58,30.21,10.0,West,12.7,19.6,N/A,,Overcast,280,2013-02-20 19:53:00
3:53 PM,21.9,10.9,63,30.24,10.0,West,10.4,17.3,N/A,,Overcast,270,2013-02-20 20:53:00
4:53 PM,21.9,10.9,63,30.25,9.0,West,9.2,-,0.00,,Overcast,260,2013-02-20 21:53:00
5:53 PM,21.9,12.0,66,30.26,10.0,West,9.2,-,N/A,,Overcast,260,2013-02-20 22:53:00
6:36 PM,21.2,12.2,68,30.22,7.0,West,6.9,-,0.00,Snow,Light Snow,270,2013-02-20 23:36:00
6:53 PM,21.9,12.9,68,30.27,8.0,West,4.6,-,0.00,Snow,Light Snow,260,2013-02-20 23:53:00
7:02 PM,21.2,14.0,74,30.22,8.0,West,5.8,-,0.00,,Overcast,260,2013-02-21 00:02:00
7:53 PM,21.9,14.0,72,30.27,4.0,West,4.6,-,0.00,Snow,Light Snow,260,2013-02-21 00:53:00
8:53 PM,21.0,15.1,78,30.27,6.0,WSW,4.6,-,0.00,Snow,Light Snow,250,2013-02-21 01:53:00
9:46 PM,21.2,15.8,80,30.23,2.5,WSW,5.8,-,0.00,Snow,Light Snow,240,2013-02-21 02:46:00
9:53 PM,21.0,16.0,81,30.28,3.0,WSW,4.6,-,0.00,Snow,Light Snow,240,2013-02-21 02:53:00
10:01 PM,21.2,15.8,80,30.23,2.5,Variable,4.6,-,0.00,Snow,Light Snow,0,2013-02-21 03:01:00
10:30 PM,21.2,15.8,80,30.23,5.0,West,8.1,-,0.00,Snow,Light Snow,270,2013-02-21 03:30:00
10:53 PM,21.9,15.1,75,30.26,8.0,West,4.6,-,0.00,Snow,Light Snow,260,2013-02-21 03:53:00
11:48 PM,21.2,15.8,80,30.22,2.5,WSW,5.8,-,0.00,Snow,Light Snow,240,2013-02-21 04:48:00
11:53 PM,21.0,15.1,78,30.26,3.0,WSW,6.9,-,0.00,Snow,Light Snow,240,2013-02-21 04:53:00